This is the latest recevied weather packets stored in our database for station/object KB3VSP. If no packets are shown the sender has not sent any weather packets the latest 10 day(s).
| Time | Temp. | Humidity | Pressure | Rain* | Wind** | Luminosity | Snow |
|---|---|---|---|---|---|---|---|
| 1777327706 | 22.22° C | 34% | 1018.6 hPa | 0 mm | - | 68 W/m² | - |
| 1777327402 | 22.22° C | 34% | 1018.5 hPa | 0 mm | - | 75 W/m² | - |
| 1777327100 | 22.22° C | 33% | 1018.5 hPa | 0 mm | - | 75 W/m² | - |
| 1777326796 | 22.78° C | 33% | 1018.3 hPa | 0 mm | - | 86 W/m² | - |
| 1777326493 | 22.78° C | 33% | 1018.5 hPa | 0 mm | - | 100 W/m² | - |
| 1777326191 | 22.78° C | 34% | 1018.5 hPa | 0 mm | - | 115 W/m² | - |
| 1777325889 | 22.78° C | 33% | 1018.5 hPa | 0 mm | - | 99 W/m² | - |
| 1777325587 | 22.78° C | 34% | 1018 hPa | 0 mm | - | 93 W/m² | - |
| 1777325284 | 22.78° C | 33% | 1018.1 hPa | 0 mm | - | 103 W/m² | - |
| 1777324981 | 22.78° C | 34% | 1017.9 hPa | 0 mm | - | 113 W/m² | - |
| 1777324678 | 22.78° C | 34% | 1017.8 hPa | 0 mm | - | 109 W/m² | - |
| 1777324376 | 22.78° C | 33% | 1017.7 hPa | 0 mm | - | 109 W/m² | - |
| 1777324074 | 22.78° C | 32% | 1018 hPa | 0 mm | - | 100 W/m² | - |
| 1777323771 | 22.78° C | 33% | 1017.6 hPa | 0 mm | - | 110 W/m² | - |
| 1777323468 | 22.78° C | 32% | 1018 hPa | 0 mm | - | 107 W/m² | - |
| 1777323166 | 22.78° C | 32% | 1017.8 hPa | 0 mm | - | 90 W/m² | - |
| 1777322863 | 22.78° C | 32% | 1017.9 hPa | 0 mm | - | 104 W/m² | - |
| 1777322562 | 23.33° C | 30% | 1018.1 hPa | 0 mm | - | 90 W/m² | - |
| 1777322258 | 23.33° C | 31% | 1018.3 hPa | 0 mm | - | 85 W/m² | - |
| 1777321955 | 23.33° C | 32% | 1018.2 hPa | 0 mm | - | 81 W/m² | - |
| 1777321652 | 23.33° C | 34% | 1018.4 hPa | 0 mm | - | 79 W/m² | - |
| 1777321348 | 22.78° C | 34% | 1018.4 hPa | 0 mm | - | 94 W/m² | - |
| 1777321045 | 22.78° C | 35% | 1018.2 hPa | 0 mm | - | 74 W/m² | - |
| 1777320743 | 23.33° C | 34% | 1018.5 hPa | 0 mm | - | 212 W/m² | - |
| 1777320434 | 23.33° C | 34% | 1018.4 hPa | 0 mm | - | 83 W/m² | - |
* Rain latest hour (hover to see other rain measurements)
** Current wind speed in m/s (hover to see current wind gust speed)